This demonstration page uses our WeatherBlox Daily Observations layout. Learn more.

Left ArrowRight Arrow

39.29038, -76.61219

Hourly Observations for May 10, 2020

Temp ( °F °C ) Dew Point ( °F °C ) Humidity (%) Winds ( mph kmh ) Pressure ( in mb ) Visibility ( mi km ) Precip ( " mm )
12:54 am 00:54 undefined 39 3.9 21 -6.1 48 48 undefined N/A 30.20 1023 N/A 0.00 0.00
1:54 am 01:54 undefined 39 3.9 22 -5.6 50 50 undefined N/A 30.19 1023 N/A 0.00 0.00
2:54 am 02:54 undefined 38 3.3 23 -5 55 55 undefined N/A 30.19 1022 N/A 0.00 0.00
3:54 am 03:54 undefined 38 3.3 23 -5 55 55 undefined N/A 30.19 1023 N/A 0.00 0.00
4:54 am 04:54 undefined 40 4.4 22 -5.6 49 49 undefined N/A 30.19 1023 N/A 0.00 0.00
5:54 am 05:54 undefined 40 4.4 22 -5.6 49 49 undefined N/A 30.20 1023 N/A 0.00 0.00
6:54 am 06:54 undefined 43 6.1 23 -5 45 45 undefined N/A 30.22 1023 N/A 0.00 0.00
7:54 am 07:54 undefined 46 7.8 24 -4.4 42 42 undefined N/A 30.25 1025 N/A 0.00 0.00
8:54 am 08:54 undefined 51 10.6 28 -2.2 41 41 undefined N/A 30.27 1025 N/A 0.00 0.00
9:54 am 09:54 undefined 56 13.3 27 -2.8 33 33 undefined N/A 30.26 1025 N/A 0.00 0.00
10:54 am 10:54 undefined 58 14.4 26 -3.3 29 29 undefined N/A 30.23 1024 N/A 0.00 0.00
11:54 am 11:54 undefined 60 15.6 27 -2.8 28 28 undefined N/A 30.20 1023 N/A 0.00 0.00
12:54 pm 12:54 undefined 63 17.2 29 -1.7 28 28 undefined N/A 30.17 1022 N/A 0.00 0.00
1:54 pm 13:54 undefined 64 17.8 29 -1.7 27 27 undefined N/A 30.13 1020 N/A 0.00 0.00
2:54 pm 14:54 undefined 65 18.3 30 -1.1 27 27 undefined N/A 30.10 1019 N/A 0.00 0.00
3:54 pm 15:54 undefined 64 17.8 27 -2.8 25 25 undefined N/A 30.06 1018 N/A 0.00 0.00
4:54 pm 16:54 undefined 65 18.3 28 -2.2 25 25 undefined N/A 30.03 1017 N/A 0.00 0.00
5:54 pm 17:54 undefined 63 17.2 26 -3.3 25 25 undefined N/A 30.02 1017 N/A 0.00 0.00
6:54 pm 18:54 undefined 63 17.2 28 -2.2 27 27 undefined N/A 30.01 1016 N/A 0.00 0.00
7:54 pm 19:54 undefined 60 15.6 37 2.8 42 42 undefined N/A 30.01 1016 N/A 0.00 0.00
8:54 pm 20:54 undefined 56 13.3 41 5 57 57 undefined N/A 30.00 1016 N/A 0.00 0.00
9:54 pm 21:54 undefined 55 12.8 43 6.1 64 64 undefined N/A 30.00 1016 N/A 0.00 0.00
10:54 pm 22:54 undefined 54 12.2 46 7.8 75 75 undefined N/A 29.98 1015 N/A 0.00 0.00
11:54 pm 23:54 undefined 54 12.2 47 8.3 77 77 undefined N/A 29.96 1015 N/A 0.00 0.00

Powered by AerisWeather